Tracking 26452 objects as of 7-Dec-2022
HD Live streaming from Space Station
objects crossing your sky now

NOAA 16 DEB

Track NOAA 16 DEB now!
10-day predictions


NORAD ID: 41076
Int'l Code: 2000-055AK
Perigee: 555.6 km
Apogee: 828.1 km
Inclination: 99.2 °
Period: 98.5 minutes
Semi major axis: 7062 km
RCS: Unknown
Launch date: September 21, 2000
Source: United States (US)
Launch site: AIR FORCE WESTERN TEST RANGE (AFWTR)

Note: This is SATELLITE DEBRIS
aabbcc
Your satellite tracking list
Your tracking list is empty




NASA's NSSDC Master Catalog

Two Line Element Set (TLE):
1 41076U 00055AK  22340.83714337  .00005472  00000-0  83343-3 0  9997
2 41076  99.2258 352.6262 0192937 261.1905  96.7403 14.62631970373849
Source of the keplerian elements: AFSPC